When you browse on this site, cookies collect data to enhance your experience and personalize the content and advertising you see.
Visit our Privacy Policy to learn more. By continuing to use the site, you agree to this use of cookies and data.
  • In Austria
  • List of Countries
  • For 7 days
  • Water Temperature
  • Weather Map
  • News
  • Weather Widgets
  • user-avatar
    Login

    Hourly Weather Algiers

    Today, 20 January, Monday

    Time Temperature Precipitation Wind Pressure Humidity
    00:00 +10°C° 0 mm 4 mps 746 mmHg 68%
    01:00 +10°C° 0 mm 4 mps 747 mmHg 69%
    02:00 +10°C° 0 mm 4 mps 747 mmHg 71%
    03:00 +10°C° 0 mm 4 mps 747 mmHg 72%
    04:00 +9°C° 0 mm 5 mps 747 mmHg 70%
    05:00 +9°C° 0 mm 6 mps 747 mmHg 68%
    06:00 +9°C° 0 mm 7 mps 747 mmHg 66%
    07:00 +10°C° 0.1 mm 6 mps 748 mmHg 66%
    08:00 +10°C° 0.1 mm 5 mps 748 mmHg 66%
    09:00 +11°C° 0.1 mm 4 mps 749 mmHg 67%
    10:00 +12°C° 0.1 mm 4 mps 749 mmHg 63%
    11:00 +13°C° 0.1 mm 5 mps 749 mmHg 60%
    12:00 +14°C° 0.1 mm 5 mps 749 mmHg 56%
    13:00 +14°C° 0 mm 6 mps 748 mmHg 58%
    14:00 +14°C° 0 mm 6 mps 747 mmHg 59%
    15:00 +14°C° 0 mm 7 mps 747 mmHg 61%
    16:00 +12°C° 0 mm 7 mps 747 mmHg 65%
    17:00 +12°C° 0 mm 8 mps 747 mmHg 68%
    18:00 +11°C° 0 mm 8 mps 747 mmHg 72%
    19:00 +11°C° 0 mm 8 mps 747 mmHg 69%
    20:00 +11°C° 0 mm 7 mps 747 mmHg 66%
    21:00 +11°C° 0 mm 7 mps 746 mmHg 64%
    22:00 +11°C° 0 mm 6 mps 746 mmHg 64%
    23:00 +12°C° 0 mm 5 mps 746 mmHg 63%

    Tomorrow, 21 January, Tuesday

    Time Temperature Precipitation Wind Pressure Humidity
    00:00 +12°C° 0 mm 4 mps 745 mmHg 63%
    01:00 +12°C° 0 mm 5 mps 745 mmHg 63%
    02:00 +11°C° 0 mm 6 mps 744 mmHg 63%
    03:00 +11°C° 0 mm 7 mps 744 mmHg 62%
    04:00 +11°C° 0.1 mm 8 mps 744 mmHg 61%
    05:00 +11°C° 0.1 mm 8 mps 744 mmHg 59%
    06:00 +11°C° 0.1 mm 9 mps 744 mmHg 58%
    07:00 +11°C° 0.1 mm 9 mps 744 mmHg 55%
    08:00 +11°C° 0.1 mm 10 mps 745 mmHg 53%
    09:00 +12°C° 0.1 mm 10 mps 746 mmHg 50%
    10:00 +13°C° 0 mm 9 mps 746 mmHg 47%
    11:00 +15°C° 0 mm 7 mps 746 mmHg 44%
    12:00 +16°C° 0 mm 5 mps 746 mmHg 40%
    13:00 +16°C° 0 mm 5 mps 746 mmHg 40%
    14:00 +17°C° 0 mm 4 mps 746 mmHg 40%
    15:00 +17°C° 0 mm 4 mps 746 mmHg 40%
    16:00 +15°C° 0 mm 4 mps 747 mmHg 42%
    17:00 +14°C° 0 mm 5 mps 747 mmHg 45%
    18:00 +13°C° 0 mm 5 mps 747 mmHg 47%
    19:00 +13°C° 0 mm 5 mps 748 mmHg 47%
    20:00 +12°C° 0 mm 4 mps 748 mmHg 47%
    21:00 +12°C° 0 mm 4 mps 749 mmHg 47%
    22:00 +12°C° 0 mm 4 mps 749 mmHg 47%
    23:00 +12°C° 0 mm 4 mps 749 mmHg 47%

    Day after tomorrow, 22 January, Wednesday

    Time Temperature Precipitation Wind Pressure Humidity
    00:00 +11°C° 0 mm 4 mps 749 mmHg 46%
    01:00 +11°C° 0 mm 4 mps 749 mmHg 47%
    02:00 +11°C° 0 mm 4 mps 748 mmHg 48%
    03:00 +11°C° 0 mm 4 mps 748 mmHg 49%
    04:00 +11°C° 0 mm 4 mps 748 mmHg 50%
    05:00 +10°C° 0 mm 5 mps 748 mmHg 52%
    06:00 +10°C° 0 mm 5 mps 747 mmHg 53%
    07:00 +10°C° 0 mm 5 mps 748 mmHg 53%
    08:00 +12°C° 0 mm 5 mps 748 mmHg 52%
    09:00 +13°C° 0 mm 5 mps 748 mmHg 52%
    10:00 +15°C° 0 mm 5 mps 748 mmHg 48%
    11:00 +16°C° 0 mm 5 mps 748 mmHg 44%
    12:00 +19°C° 0 mm 6 mps 748 mmHg 40%
    13:00 +17°C° 0 mm 5 mps 748 mmHg 41%
    14:00 +17°C° 0 mm 5 mps 748 mmHg 42%
    15:00 +18°C° 0 mm 4 mps 748 mmHg 44%
    16:00 +17°C° 0 mm 4 mps 749 mmHg 46%
    17:00 +15°C° 0 mm 4 mps 749 mmHg 48%
    18:00 +14°C° 0 mm 4 mps 750 mmHg 51%
    19:00 +14°C° 0 mm 4 mps 750 mmHg 51%
    20:00 +13°C° 0 mm 4 mps 750 mmHg 52%
    21:00 +13°C° 0 mm 4 mps 751 mmHg 52%
    22:00 +13°C° 0 mm 4 mps 751 mmHg 53%
    23:00 +12°C° 0 mm 4 mps 751 mmHg 53%

    23 January, Thursday

    Time Temperature Precipitation Wind Pressure Humidity
    00:00 +12°C° 0 mm 3 mps 751 mmHg 53%
    01:00 +12°C° 0 mm 3 mps 751 mmHg 54%
    02:00 +12°C° 0 mm 3 mps 751 mmHg 54%
    03:00 +12°C° 0 mm 3 mps 751 mmHg 54%
    04:00 +12°C° 0 mm 2 mps 751 mmHg 55%
    05:00 +12°C° 0 mm 2 mps 751 mmHg 56%
    06:00 +12°C° 0 mm 2 mps 751 mmHg 58%
    07:00 +13°C° 0 mm 2 mps 751 mmHg 56%
    08:00 +14°C° 0 mm 2 mps 751 mmHg 55%
    09:00 +15°C° 0 mm 2 mps 752 mmHg 54%
    10:00 +16°C° 0 mm 2 mps 752 mmHg 49%
    11:00 +18°C° 0 mm 1 mps 752 mmHg 45%
    12:00 +19°C° 0 mm 1 mps 751 mmHg 40%
    13:00 +19°C° 0 mm 1 mps 751 mmHg 40%
    14:00 +19°C° 0 mm 1 mps 751 mmHg 41%
    15:00 +18°C° 0 mm 2 mps 750 mmHg 41%
    16:00 +17°C° 0 mm 2 mps 751 mmHg 45%
    17:00 +16°C° 0 mm 2 mps 751 mmHg 49%
    18:00 +15°C° 0 mm 2 mps 751 mmHg 54%
    19:00 +14°C° 0 mm 2 mps 751 mmHg 53%
    20:00 +14°C° 0 mm 2 mps 752 mmHg 52%
    21:00 +14°C° 0 mm 2 mps 752 mmHg 51%
    22:00 +14°C° 0 mm 2 mps 752 mmHg 50%
    23:00 +13°C° 0 mm 2 mps 752 mmHg 49%

    24 January, Friday

    Time Temperature Precipitation Wind Pressure Humidity
    00:00 +13°C° 0 mm 2 mps 752 mmHg 48%
    01:00 +13°C° 0 mm 2 mps 752 mmHg 48%
    02:00 +12°C° 0 mm 3 mps 752 mmHg 49%
    03:00 +12°C° 0 mm 3 mps 752 mmHg 49%
    04:00 +12°C° 0 mm 3 mps 752 mmHg 49%
    05:00 +12°C° 0 mm 3 mps 752 mmHg 49%
    06:00 +12°C° 0 mm 3 mps 752 mmHg 48%
    07:00 +13°C° 0 mm 3 mps 752 mmHg 48%
    08:00 +13°C° 0 mm 3 mps 753 mmHg 47%
    09:00 +14°C° 0 mm 3 mps 753 mmHg 46%
    10:00 +17°C° 0 mm 3 mps 753 mmHg 42%
    11:00 +18°C° 0 mm 2 mps 753 mmHg 39%
    12:00 +20°C° 0 mm 2 mps 753 mmHg 35%
    13:00 +19°C° 0 mm 2 mps 753 mmHg 36%
    14:00 +19°C° 0 mm 2 mps 752 mmHg 37%
    15:00 +19°C° 0 mm 2 mps 752 mmHg 38%
    16:00 +18°C° 0 mm 2 mps 752 mmHg 41%
    17:00 +16°C° 0 mm 2 mps 752 mmHg 45%
    18:00 +15°C° 0 mm 2 mps 752 mmHg 48%
    19:00 +15°C° 0 mm 2 mps 753 mmHg 47%
    20:00 +15°C° 0 mm 2 mps 753 mmHg 46%
    21:00 +15°C° 0 mm 2 mps 753 mmHg 45%
    22:00 +13°C° 0 mm 3 mps 753 mmHg 45%
    23:00 +13°C° 0 mm 3 mps 753 mmHg 45%

    25 January, Saturday

    Time Temperature Precipitation Wind Pressure Humidity
    00:00 +13°C° 0 mm 3 mps 753 mmHg 45%
    01:00 +13°C° 0 mm 3 mps 753 mmHg 45%
    02:00 +13°C° 0 mm 3 mps 753 mmHg 45%
    03:00 +13°C° 0 mm 3 mps 752 mmHg 45%
    04:00 +13°C° 0 mm 3 mps 752 mmHg 46%
    05:00 +13°C° 0 mm 3 mps 752 mmHg 47%
    06:00 +13°C° 0 mm 3 mps 752 mmHg 47%
    07:00 +13°C° 0 mm 3 mps 752 mmHg 47%
    08:00 +14°C° 0 mm 3 mps 753 mmHg 47%
    09:00 +16°C° 0 mm 2 mps 753 mmHg 47%
    10:00 +17°C° 0 mm 2 mps 753 mmHg 45%
    11:00 +19°C° 0 mm 1 mps 752 mmHg 42%
    12:00 +21°C° 0 mm 1 mps 752 mmHg 39%
    13:00 +21°C° 0 mm 1 mps 752 mmHg 40%
    14:00 +20°C° 0 mm 2 mps 752 mmHg 40%
    15:00 +20°C° 0 mm 2 mps 751 mmHg 40%
    16:00 +19°C° 0 mm 3 mps 751 mmHg 44%
    17:00 +17°C° 0 mm 3 mps 751 mmHg 48%
    18:00 +16°C° 0 mm 3 mps 751 mmHg 51%
    19:00 +16°C° 0 mm 3 mps 752 mmHg 51%
    20:00 +16°C° 0 mm 3 mps 752 mmHg 51%
    21:00 +16°C° 0 mm 2 mps 752 mmHg 50%
    22:00 +16°C° 0 mm 3 mps 752 mmHg 49%
    23:00 +16°C° 0 mm 3 mps 752 mmHg 47%
    Show more